Location: Atherton
(17.2661°S, 145.4859°E)
Time: 18:23:54
(UTC+10:00)

ACS3 Solar Sail - Pass Details

Date: 28 May 2025
Orbit: 920 x 1019 km, 97.5° (Epoch: 20 June)

Event Time Altitude Azimuth Distance (km) Brightness Sun altitude
Rises 05:35:23 0° 6° (N) 3,549 5.1 -15.2°
Reaches altitude 10° 05:37:47 10° 4° (N) 2,619 4.3 -14.7°
Maximum altitude 05:43:37 70° 281° (W) 1,000 1.7 -13.4°
Drops below altitude 10° 05:49:38 10° 197° (SSW) 2,698 3.8 -12.0°
Sets 05:52:09 0° 195° (SSW) 3,664 4.5 -11.4°
